DW7002 Weather Reports


Display with metric or nautical units.
time (UTC)temp
F
wind
direction
speed
MPH
gust
MPH
rain 1hr
in
rain 24hr
in
rain mn
in
humidity
%
barometer
mb
20260904184154 97 308 1.0 5.0 0.00 0.00 0.00 58 1016.8
20260904183126 97 49 0.0 1.0 0.00 0.00 0.00 58 1017.0
20260904182140 96 86 1.0 2.0 0.00 0.00 0.00 59 1017.1
20260904181151 96 198 0.0 2.0 0.00 0.00 0.00 60 1017.2
20260904180128 96 269 0.0 6.0 0.00 0.00 0.00 59 1017.4
20260904175119 96 178 0.0 4.0 0.00 0.00 0.00 58 1017.6
20260904174131 95 286 0.0 4.0 0.00 0.00 0.00 62 1017.7
20260904173146 95 254 1.0 5.0 0.00 0.00 0.00 60 1017.7
20260904172123 94 133 0.0 5.0 0.00 0.00 0.00 61 1017.8
20260904171138 94 151 0.0 2.0 0.00 0.00 0.00 63 1017.9
20260904170131 93 246 0.0 2.0 0.00 0.00 0.00 66 1018.1
20260904165141 93 284 0.0 4.0 0.00 0.00 0.00 66 1018.1
20260904164137 94 267 1.0 5.0 0.00 0.00 0.00 68 1018.4
20260904163129 93 163 0.0 4.0 0.00 0.00 0.00 66 1018.5
20260904162124 92 240 0.0 2.0 0.00 0.00 0.00 67 1018.6
20260904161117 92 169 0.0 4.0 0.00 0.00 0.00 68 1018.6
20260904160132 91 192 0.0 2.0 0.00 0.00 0.00 69 1018.7
20260904155143 91 238 1.0 4.0 0.00 0.00 0.00 69 1018.8
20260904154117 91 260 0.0 3.0 0.00 0.00 0.00 71 1018.8
20260904153130 90 274 0.0 2.0 0.00 0.00 0.00 71 1018.8
20260904152126 90 244 1.0 2.0 0.00 0.00 0.00 71 1018.9
20260904151120 89 242 0.0 2.0 0.00 0.00 0.00 73 1018.8
20260904150131 88 281 0.0 4.0 0.00 0.00 0.00 74 1018.8
20260904145126 87 286 0.0 5.0 0.00 0.00 0.00 73 1018.9
20260904144119 87 276 1.0 3.0 0.00 0.00 0.00 75 1018.9
20260904143133 86 252 1.0 5.0 0.00 0.00 0.00 75 1019.1
20260904142127 86 251 1.0 2.0 0.00 0.00 0.00 77 1019.0
20260904141124 85 269 0.0 2.0 0.00 0.00 0.00 79 1018.9
20260904140117 84 269 0.0 4.0 0.00 0.00 0.00 80 1019.0
20260904135127 83 271 0.0 2.0 0.00 0.00 0.00 81 1019.0
20260904134125 82 258 0.0 4.0 0.00 0.00 0.00 82 1019.0
20260904133119 82 275 0.0 2.0 0.00 0.00 0.00 84 1019.0
20260904132131 81 282 0.0 6.0 0.00 0.00 0.00 84 1019.2
20260904131124 80 281 1.0 2.0 0.00 0.00 0.00 85 1019.1
20260904130122 79 296 0.0 4.0 0.00 0.00 0.00 87 1019.1
20260904125133 79 286 0.0 1.0 0.00 0.00 0.00 88 1019.1
20260904124126 78 284 0.0 2.0 0.00 0.00 0.00 89 1019.2
20260904123124 77 286 0.0 1.0 0.00 0.00 0.00 89 1019.1
20260904122116 77 287 0.0 2.0 0.00 0.00 0.00 90 1019.0
20260904121148 76 287 0.0 1.0 0.00 0.00 0.00 91 1019.0
20260904120120 76 288 0.0 1.0 0.00 0.00 0.00 91 1019.0
20260904115114 75 288 0.0 0.0 0.00 0.00 0.00 91 1018.9
20260904114127 75 288 0.0 0.0 0.00 0.00 0.00 92 1018.9
20260904113122 75 288 0.0 0.0 0.00 0.00 0.00 92 1018.8
20260904112115 75 288 0.0 0.0 0.00 0.00 0.00 92 1018.6
20260904111132 75 288 0.0 0.0 0.00 0.00 0.00 92 1018.7
20260904110127 75 288 0.0 0.0 0.00 0.00 0.00 91 1018.6
20260904105119 75 288 0.0 0.0 0.00 0.00 0.00 91 1018.5
20260904104117 75 288 0.0 0.0 0.00 0.00 0.00 91 1018.5
20260904103131 76 288 0.0 0.0 0.00 0.00 0.00 90 1018.5
20260904102124 76 288 0.0 0.0 0.00 0.00 0.00 90 1018.6
20260904101119 76 288 0.0 0.0 0.00 0.00 0.00 90 1018.5
20260904100117 76 288 0.0 0.0 0.00 0.00 0.00 90 1018.5
20260904095127 76 288 0.0 0.0 0.00 0.00 0.00 90 1018.5
20260904094121 76 288 0.0 0.0 0.00 0.00 0.00 89 1018.6
20260904093154 76 288 0.0 1.0 0.00 0.00 0.00 90 1018.4
20260904092130 76 288 0.0 0.0 0.00 0.00 0.00 89 1018.4
20260904091142 76 288 0.0 0.0 0.00 0.00 0.00 89 1018.2
20260904090113 76 288 0.0 0.0 0.00 0.00 0.00 90 1018.0
20260904085124 76 288 0.0 1.0 0.00 0.00 0.00 90 1017.9
20260904084121 76 288 0.0 1.0 0.00 0.00 0.00 89 1017.8
20260904083115 76 288 0.0 0.0 0.00 0.00 0.00 90 1017.8
20260904082128 76 288 0.0 1.0 0.00 0.00 0.00 90 1017.5
20260904081126 76 281 0.0 0.0 0.00 0.00 0.00 90 1017.5
20260904080118 77 281 0.0 0.0 0.00 0.00 0.00 90 1017.6
20260904075129 77 286 0.0 0.0 0.00 0.00 0.00 90 1017.7
20260904074123 77 286 0.0 0.0 0.00 0.00 0.00 90 1017.7
20260904073121 77 286 0.0 0.0 0.00 0.00 0.00 89 1017.9
20260904072114 77 286 0.0 0.0 0.00 0.00 0.00 89 1017.9
20260904071129 77 286 0.0 0.0 0.00 0.00 0.00 89 1018.1
20260904070127 77 286 0.0 0.0 0.00 0.00 0.00 89 1018.1
20260904065138 77 286 0.0 0.0 0.00 0.00 0.00 89 1018.3
20260904064129 77 286 0.0 0.0 0.00 0.00 0.00 89 1018.4
20260904063123 78 286 0.0 0.0 0.00 0.00 0.00 89 1018.5
20260904062121 78 286 0.0 0.0 0.00 0.00 0.00 88 1018.6
20260904061115 78 286 0.0 0.0 0.00 0.00 0.00 88 1018.7
20260904060127 78 286 0.0 0.0 0.00 0.00 0.00 88 1018.8
20260904055121 78 286 0.0 0.0 0.00 0.00 0.00 88 1019.0
20260904054114 79 286 0.0 1.0 0.00 0.00 0.00 88 1019.0
20260904053127 79 285 0.0 1.0 0.00 0.00 0.00 87 1019.1
20260904052142 78 285 0.0 1.0 0.00 0.00 0.00 88 1019.3
20260904051119 78 254 0.0 0.0 0.00 0.00 0.00 88 1019.2
20260904050132 78 254 0.0 0.0 0.00 0.00 0.00 88 1019.3
20260904045123 78 254 0.0 1.0 0.00 0.00 0.00 88 1019.2
20260904044117 78 254 0.0 1.0 0.00 0.00 0.00 89 1019.2
20260904043154 78 325 0.0 0.0 0.00 0.00 0.00 89 1019.2
20260904042126 78 325 0.0 0.0 0.00 0.00 0.00 89 1019.2
20260904041120 78 325 0.0 0.0 0.00 0.00 0.00 89 1019.1
20260904040116 78 325 0.0 0.0 0.00 0.00 0.00 90 1018.9
20260904035148 78 325 0.0 0.0 0.00 0.00 0.00 89 1018.9
20260904034120 78 325 0.0 0.0 0.00 0.00 0.00 89 1019.0
20260904033153 78 325 0.0 0.0 0.00 0.00 0.00 89 1019.0
20260904032125 79 325 0.0 0.0 0.00 0.00 0.00 89 1019.0
20260904031122 79 325 0.0 0.0 0.00 0.00 0.00 88 1018.9
20260904030116 79 325 0.0 0.0 0.00 0.00 0.00 88 1019.0
20260904025126 79 325 0.0 0.0 0.00 0.00 0.00 88 1019.0
20260904024121 80 325 0.0 0.0 0.00 0.00 0.00 87 1019.0
20260904023114 80 325 0.0 0.0 0.00 0.00 0.00 87 1019.0
20260904022127 80 325 0.0 0.0 0.00 0.00 0.00 86 1019.1
20260904021120 81 325 0.0 0.0 0.00 0.00 0.00 85 1019.2
20260904020137 81 325 0.0 0.0 0.00 0.00 0.00 85 1019.1
20260904015127 81 325 0.0 0.0 0.00 0.00 0.00 84 1019.0
20260904014119 82 325 0.0 0.0 0.00 0.00 0.00 83 1019.0
20260904013117 82 325 0.0 0.0 0.00 0.00 0.00 82 1018.9
20260904012149 82 325 0.0 0.0 0.00 0.00 0.00 81 1018.7
20260904011121 83 325 0.0 0.0 0.00 0.00 0.00 81 1018.4
20260904010135 83 325 0.0 0.0 0.00 0.00 0.00 79 1018.4
20260904005125 84 325 0.0 0.0 0.00 0.00 0.00 78 1018.3
20260904004121 85 325 0.0 0.0 0.00 0.00 0.00 77 1018.2
20260904003114 85 325 0.0 0.0 0.00 0.00 0.00 76 1018.1
20260904002128 86 325 0.0 0.0 0.00 0.00 0.00 75 1018.0
20260904001124 87 325 0.0 0.0 0.00 0.00 0.00 74 1017.8
20260904000117 88 325 0.0 0.0 0.00 0.00 0.00 72 1017.7
20260903235127 89 325 0.0 0.0 0.00 0.00 0.00 71 1017.6
20260903234120 89 325 0.0 0.0 0.00 0.00 0.00 69 1017.5
20260903233118 91 325 0.0 0.0 0.00 0.00 0.00 67 1017.4
20260903232152 92 324 0.0 0.0 0.00 0.00 0.00 64 1017.5
20260903231125 93 324 0.0 0.0 0.00 0.00 0.00 63 1017.5
20260903230121 93 324 0.0 0.0 0.00 0.00 0.00 62 1017.5
20260903225132 92 323 0.0 0.0 0.00 0.00 0.00 63 1017.4
20260903224125 93 324 0.0 0.0 0.00 0.00 0.00 61 1017.3
20260903223117 93 323 0.0 0.0 0.00 0.00 0.00 60 1017.3
20260903222115 94 324 0.0 0.0 0.00 0.00 0.00 60 1017.3
20260903221128 94 323 0.0 0.0 0.00 0.00 0.00 59 1017.5
20260903220140 94 322 0.0 1.0 0.00 0.00 0.00 57 1017.4
20260903215130 95 173 0.0 0.0 0.00 0.00 0.00 57 1017.6
20260903214128 95 169 0.0 2.0 0.00 0.00 0.00 56 1017.5
20260903213121 95 103 0.0 1.0 0.00 0.00 0.00 57 1017.6
20260903212114 95 103 0.0 2.0 0.00 0.00 0.00 55 1017.7
20260903211132 95 123 0.0 1.0 0.00 0.00 0.00 56 1017.7
20260903210126 95 178 0.0 4.0 0.00 0.00 0.00 56 1017.8
20260903205135 96 129 0.0 1.0 0.00 0.00 0.00 54 1017.8
20260903204128 96 324 0.0 1.0 0.00 0.00 0.00 54 1017.8
20260903203126 97 188 0.0 7.0 0.00 0.00 0.00 53 1017.9
20260903202139 97 173 1.0 4.0 0.00 0.00 0.00 54 1017.9
20260903201131 97 180 1.0 4.0 0.00 0.00 0.00 52 1018.2
20260903200125 97 226 0.0 2.0 0.00 0.00 0.00 51 1018.2
20260903195118 97 271 0.0 1.0 0.00 0.00 0.00 50 1018.4
20260903194152 97 104 0.0 5.0 0.00 0.00 0.00 52 1018.4
20260903193145 98 160 1.0 3.0 0.00 0.00 0.00 51 1018.5
20260903192116 98 180 0.0 2.0 0.00 0.00 0.00 50 1018.6
20260903191114 98 143 0.0 5.0 0.00 0.00 0.00 50 1018.6
20260903190128 97 78 0.0 6.0 0.00 0.00 0.00 52 1018.7
20260903185118 97 211 0.0 2.0 0.00 0.00 0.00 52 1018.8